Regional Weather Roundup
Issued by NWS Wakefield, VA

Home | Current Version | Previous Version | Graphics & Text | Print | Product List | Glossary On
Versions: 1 2 3 4 5 6 7 8 9 10 11 12 13 14 15 16 17 18 19 20 21 22 23 24 25 26 27 28 29 30 31 32 33 34 35 36 37 38 39 40 41 42 43 44 45 46 47 48 49 50
092
ASUS41 KAKQ 270615
RWRAKQ

REGIONAL WEATHER ROUNDUP
NATIONAL WEATHER SERVICE WAKEFIELD VA
200 AM EDT TUE JUN 27 2017

Note: "fair" indicates few or no clouds below 12,000 feet with no
significant weather and/or obstructions to visibility. * = Denotes
station may not report precipitation (e.g., rain,snow,etc.),
thunder or fog.

VAZ042-051-052>054-056-270700-
NORTHERN VIRGINIA

CITY           SKY/WX    TMP DP  RH WIND       PRES   REMARKS
WASH NATIONAL  PTCLDY    72  51  47 N8        29.99F
DULLES         MOCLDY    69  47  45 N6        30.00F
FORT BELVOIR   CLEAR     63  56  78 CALM      29.99F
QUANTICO       CLEAR     65  59  81 NW7       30.00F
FREDERICKSBRG* CLEAR     63  57  80 CALM      29.99F
STAFFORD*      CLEAR     56  56  99 CALM      30.04F
WARRENTON      CLEAR     55  51  86 CALM      30.00F
CULPEPER*      CLEAR     57  56  97 CALM      30.02S
MANASSAS*      CLEAR     58  55  90 CALM      30.01S
LEESBURG*      PTCLDY    68  52  56 CALM      30.01F
WINCHESTER     MOCLDY    61  46  59 CALM      30.02F
FRONT ROYAL*   PTCLDY    59  52  77 CALM      30.02S
LURAY*         CLEAR     55  54  94 CALM      30.04S
$$

VAZ048-049-060>072-079>083-270700-
CENTRAL AND SOUTH CENTRAL VIRGINIA

CITY           SKY/WX    TMP DP  RH WIND       PRES   REMARKS
RICHMOND       PTCLDY    65  56  72 CALM      29.99F
CHESTERFIELD*  FAIR      62  56  80 CALM      30.00
PETERSBURG*    CLEAR     55  55  99 CALM      30.01S
HANOVER        CLEAR     61  55  81 CALM      30.00F
TAPPAHANNOCK*  CLEAR     60  60 100 CALM      30.00F
QUINTON*       FAIR      60  60 100 MISG      29.99F
CHARLOTTSVILLE CLOUDY    69  50  50 VRB3      30.02S
GORDONSVILLE*  MOCLDY    57  56  95 CALM      30.01S
ORANGE*        PTCLDY    55  54  94 CALM      30.02S
LOUISA*        CLEAR     57  55  94 CALM      30.00F
BUMPASS*       FAIR      59  57  91 W6        30.01S
FARMVILLE*     MOCLDY    63  58  84 CALM      30.00F
CREWE*         CLOUDY    61  57  87 CALM      30.00F
FORT PICKETT*  MOCLDY    62  58  88 CALM      30.01F
CHASE CITY*    FAIR      63  62  99 CALM      30.02F
CLARKSVILLE*   FAIR      63  61  94 SW3       30.01F
SOUTH HILL*    CLEAR     60  59  97 CALM      30.07F
LAWRENCEVILLE* FAIR      61  57  88 CALM      30.01F
EMPORIA*       MOCLDY    63  61  94 CALM      30.02F
$$

VAZ088>098-270700-
SOUTHEAST VIRGINIA

CITY           SKY/WX    TMP DP  RH WIND       PRES   REMARKS
NORFOLK        CLOUDY    72  60  66 S6        30.01F
VIRGINIA BEACH MOCLDY    68  58  70 CALM      30.00F
NORFOLK NAVAL  CLOUDY    72  59  63 S6        30.02F
WEST POINT*    PTCLDY    65  60  83 CALM      30.01F
SALUDA*        FAIR      67  59  74 S3        30.00F
NEWPORT NEWS   CLOUDY    71  61  70 SW6       30.00F
LANGLEY AFB    CLOUDY    72  61  68 SW5       30.01F
FORT EUSTIS    CLOUDY    72  62  71 S6        29.98F
WILLIAMSBURG*  PTCLDY    70  63  78 CALM      30.01F
HR EXEC AP*    FAIR      63  57  82 CALM      29.99F
FRANKLIN*      NOT AVBL
US460-WAKEFLD  PTCLDY    62  61  96 CALM      30.01F
$$

VAZ020-022-025-037-045-270700-
WEST CENTRAL AND SOUTHWEST VIRGINIA

CITY           SKY/WX    TMP DP  RH WIND       PRES   REMARKS
STAUNTON*      CLEAR     53  48  85 CALM      30.07F
WAYNESBORO*    PTCLDY    55  51  87 SW6       30.07S
HOT SPRINGS VA CLEAR     55  36  47 W15       30.13F
LYNCHBURG      MOCLDY    63  55  75 N3        30.04S
DANVILLE       CLEAR     60  60 100 CALM      30.04S
SOUTH BOSTON*  FAIR      61  60  96 CALM      30.02F
MARTINSVILLE   CLEAR     58  57  97 CALM      30.08S
ROANOKE        MOCLDY    67  50  54 N5        30.08F
BLACKSBURG     CLEAR     57  51  81 CALM      30.13F
DUBLIN*        CLEAR     57  49  72 W3        30.12F
MARION*        CLEAR     55  52  89 CALM      30.16S
HILLSVILLE*    PTCLDY    59  51  75 CALM      30.12S
RICHLANDS*     FAIR      58  22  25 CALM      30.14F
WISE*          CLOUDY    57  48  72 CALM      30.15F
ABINGDON*      CLEAR     58  55  88 CALM      30.12S
$$

MDZ021>025-VAZ099-100-270700-
SOUTHERN MARYLAND AND THE DELMARVA PENINSULA

CITY           SKY/WX    TMP DP  RH WIND       PRES   REMARKS
PATUXENT RIVER CLEAR     70  61  73 SW7       29.98F
BAY BRIDGE APT CLOUDY    75  63  64 SW10      29.98S
LEONARDTOWN    CLEAR     64  59  82 CALM      30.01S
DOVER          CLEAR     68  58  71 S9        29.96F
GEORGETOWN     PTCLDY    65  58  78 S6        30.00F
EASTON         CLEAR     69  59  72 S6        30.01F
CAMBRIDGE      PTCLDY    64  61  88 CALM      29.99F
SALISBURY      CLEAR     64  61  90 S5        30.00F
OCEAN CITY     CLEAR     71  64  78 SW6       30.01F
WALLOPS ISLAND CLEAR     70  65  84 S9        30.01F
ACCOMACK*      CLEAR     69  60  72 S5        30.01F
$$

NCZ012>017-030>032-270700-
NORTH CENTRAL AND EASTERN NORTH CAROLINA

CITY           SKY/WX    TMP DP  RH WIND       PRES   REMARKS
ROANOKE RAPIDS FAIR      63  63 100 CALM      30.01F
RALEIGH        MOCLDY    65  59  81 CALM      30.02F
ELIZABETH CITY PTCLDY    68  63  84 S5        30.01F
AHOSKIE*         N/A     64  63  96 CALM      30.02F
EDENTON*       PTCLDY    72  64  76 CALM      30.03S
CURRITUCK*     PTCLDY    69  64  82 CALM      30.02F
KILL DEVIL HLS PTCLDY    69  63  80 CALM      30.01F
MANTEO         PTCLDY    66  63  90 CALM      30.03S
CAPE HATTERAS  MOCLDY    68  64  87 CALM      30.02F
TARBORO*       NOT AVBL
GOLDSBORO      CLEAR     67  66  97 CALM      30.00F
WASHINGTON     CLEAR    N/A N/A N/A CALM      30.03S
GREENVILLE     CLEAR     68  64  88 CALM      30.03F
NEW BERN       CLEAR     67  66  97 CALM      30.03F
WILMINGTON     CLEAR     68  66  93 CALM      30.02F
$$

VAZ048-270700-
ELSEWHERE

CITY           SKY/WX    TMP DP  RH WIND       PRES   REMARKS
HARRISBURG PA  MOCLDY    62  59  90 N3        29.99F
BALTIMORE      CLOUDY    70  53  54 W7        29.98F
ANNAPOLIS      CLOUDY    70  64  81 W5        29.98R
ANDREWS AFB    CLEAR     69  53  56 NW8       29.98F
PHILADELPHIA   MOCLDY    71  54  54 N7        29.99R
HENDERSON NC   PTCLDY    62  56  81 CALM      30.03F
GREENSBORO     PTCLDY    66  58  75 W6        30.04F
ROCKY MOUNT    CLOUDY    67  64  90 CALM      30.01F
$$

VAZ100-270700-
MARINE

STATION/POSITION TIME  TEMP    WIND        PRES    WAVE   SWELL
                       AIR SEA DIR/SP/G            HT/PER HT/PER
                 (UTC) (F)     (DEG/KT/KT) (MB)    (FT/S) (FT/S)
BRANDYWINE LGT   0548          210/ 13/ 14   N/A
CAPE MAY NJ      0548   67 67  180/  5/  8 1015.3F
LEWES DE         0548   70 71  210/  4/  6 1015.5F
15NM E FENWICK I 0550   70 68  180/  8/  8 1016.5F   1/ 8   2/ 8
OCEAN-CITY-INLET 0548   68 68  220/  5/  6 1016.4F
WACHAPREAGUE VA  0548   73 78  170/  9/ 11 1015.9F
THOMAS POINT MD  0600   72 77  240/ 12/ 14   N/A
GOOSES REEF MD   0600   75 78  260/ 14/ 17 1015.8    2/ 3
COVE POINT MD    0548   72     230/ 11/ 13 1015.8F
SOLOMONS ISLAND  0548   72 79  220/  6/  8   N/A
BISHOPS HEAD MD  0548   77 78  200/ 16/ 18 1015.3F
PINEY POINT MD   0542          250/  4/  6   N/A
POTOMAC MD       0600   74 79  220/ 14/ 16 1014.6    2/ 2
CAMBRIDGE MD     0536   70 81              1016.1F
LEWISETTA VA     0548   71 79  220/  8/ 10 1015.3F
RAPPAHANNOCK LGT 0542          180/ 17/ 18 1016.5F
STINGRAY PT      0600   75 78  220/ 10/ 12 1015.5    1/ 2
YORK RVR RNG VA  0548   75     210/ 11/ 13 1016.2F
YORKTOWN VA      0548   72 79  200/  5/  6 1015.7F
JAMESTOWN VA     0600   71 83  150/  4/  4   N/A
DOMINION TERM VA 0548   74     200/ 10/ 12 1016.1F
KIPTOPEKE VA     0548      75  190/  9/ 10   N/A
CHES BAY BRIDGE  0548   73 72  210/  9/ 10 1016.0F
CAPE HENRY VA    0548   72     180/  7/  9   N/A
WILLOUBY STN VA  0548   75     190/ 11/ 13 1015.8F
S CRANEY ISL VA  0548   74     200/  5/  8 1016.0F
CAPE HENRY BUOY  0530      72                N/A     1/ 9
1ST LANDING BUOY 0600   74 73              1016.2    1
CAPE CHARLES BUO 0551      71                N/A     1/ 8
64NM E OF VA BCH 0550   73 73  130/  6/  8 1016.9F   2/ 7   2/ 7
DUCK PIER NC     0548   73 70  150/  6/  7 1016.0F
44100 DUCK FRF   0505      72                N/A     1/ 8
OREGON INLET NC  0548           50/  1/  2   N/A
HATTERAS NC      0548   74 78   CALM  /  2 1016.4F
DIAMOND SHLS NC  0550   77 81   CALM  /  2 1016.3F   2/ 8   2/ 8
CAPE LOOKOUT NC  0500   75        CALM     1016.4F
$$




USA.gov is the U.S. government's official web portal to all federal, state and local government web resources and services.